TimeMST,TemperatureF,Dew PointF,Humidity,Sea Level PressureIn,VisibilityMPH,Wind Direction,Wind SpeedMPH,Gust SpeedMPH,PrecipitationIn,Events,Conditions,WindDirDegrees,DateUTC
12:53 AM,-9.9,-15.0,78,30.45,10.0,Calm,Calm,-,N/A,,Clear,0,2013-01-04 07:53:00
1:53 AM,-9.9,-15.0,78,30.44,10.0,Calm,Calm,-,N/A,,Clear,0,2013-01-04 08:53:00
2:53 AM,-11.0,-16.1,78,30.45,10.0,Calm,Calm,-,N/A,,Clear,0,2013-01-04 09:53:00
3:53 AM,-11.9,-16.1,82,30.45,10.0,Calm,Calm,-,N/A,,Clear,0,2013-01-04 10:53:00
4:53 AM,-11.9,-17.0,78,30.45,10.0,South,3.5,-,N/A,,Clear,190,2013-01-04 11:53:00
5:53 AM,-11.9,-17.0,78,30.49,10.0,Calm,Calm,-,N/A,,Clear,0,2013-01-04 12:53:00
6:53 AM,-11.9,-17.0,78,30.51,10.0,Calm,Calm,-,N/A,,Clear,0,2013-01-04 13:53:00
7:53 AM,-13.0,-18.0,78,30.59,10.0,Calm,Calm,-,N/A,,Clear,0,2013-01-04 14:53:00
8:53 AM,-5.1,-11.0,76,30.56,10.0,Calm,Calm,-,N/A,,Clear,0,2013-01-04 15:53:00
9:53 AM,3.9,-4.0,70,30.54,10.0,Calm,Calm,-,N/A,,Clear,0,2013-01-04 16:53:00
10:53 AM,12.9,-2.0,51,30.48,10.0,Calm,Calm,-,N/A,,Clear,0,2013-01-04 17:53:00
11:53 AM,21.9,1.0,40,30.41,10.0,Calm,Calm,-,N/A,,Clear,0,2013-01-04 18:53:00
12:53 PM,28.0,3.9,36,30.36,10.0,Calm,Calm,-,N/A,,Clear,0,2013-01-04 19:53:00
1:53 PM,32.0,3.9,31,30.31,10.0,Calm,Calm,-,N/A,,Clear,0,2013-01-04 20:53:00
2:53 PM,30.9,1.0,28,30.31,10.0,SW,3.5,-,N/A,,Clear,230,2013-01-04 21:53:00
3:53 PM,30.0,3.9,33,30.32,10.0,West,5.8,-,N/A,,Clear,260,2013-01-04 22:53:00
4:53 PM,26.1,6.1,43,30.35,10.0,SSW,3.5,-,N/A,,Clear,200,2013-01-04 23:53:00
5:53 PM,19.0,3.9,52,30.40,10.0,Calm,Calm,-,N/A,,Clear,0,2013-01-05 00:53:00
6:53 PM,17.1,3.9,56,30.43,10.0,South,3.5,-,N/A,,Clear,170,2013-01-05 01:53:00
7:53 PM,12.9,3.9,67,30.46,10.0,Calm,Calm,-,N/A,,Clear,0,2013-01-05 02:53:00
8:53 PM,12.9,3.0,65,30.43,10.0,NW,6.9,-,N/A,,Clear,310,2013-01-05 03:53:00
9:53 PM,10.0,1.9,70,30.41,10.0,Calm,Calm,-,N/A,,Clear,0,2013-01-05 04:53:00
10:53 PM,5.0,-0.9,76,30.41,10.0,Calm,Calm,-,N/A,,Clear,0,2013-01-05 05:53:00
11:53 PM,3.0,-2.9,76,30.37,10.0,Calm,Calm,-,N/A,,Clear,0,2013-01-05 06:53:00